Time,TemperatureF,DewpointF,PressureIn,WindDirection,WindDirectionDegrees,WindSpeedMPH,WindSpeedGustMPH,Humidity,HourlyPrecipIn,Conditions,Clouds,dailyrainin,SoftwareType,DateUTC
2013-01-08 00:04:00,29.0,28.0,-100.00,ENE,65,1.0,2.0,95,-99.99,,,-99.99,,2013-01-08 05:04:00,
2013-01-08 00:12:00,29.0,28.0,-100.00,East,90,1.0,4.0,95,-99.99,,,-99.99,,2013-01-08 05:12:00,
2013-01-08 00:22:00,29.0,27.0,-100.00,East,95,2.0,4.0,95,-99.99,,,-99.99,,2013-01-08 05:22:00,
2013-01-08 00:33:00,28.0,27.0,-100.00,East,95,2.0,4.0,95,-99.99,,,-99.99,,2013-01-08 05:33:00,
2013-01-08 00:42:00,28.0,27.0,-100.00,WSW,250,0.0,6.0,95,-99.99,,,-99.99,,2013-01-08 05:42:00,
2013-01-08 00:53:00,28.0,27.0,-100.00,ENE,65,0.0,6.0,95,-99.99,,,-99.99,,2013-01-08 05:53:00,
2013-01-08 01:02:00,28.0,27.0,-100.00,ESE,105,2.0,4.0,95,-99.99,,,-99.99,,2013-01-08 06:02:00,
2013-01-08 01:12:00,29.0,28.0,-100.00,ENE,65,1.0,4.0,95,-99.99,,,-99.99,,2013-01-08 06:12:00,
2013-01-08 01:22:00,28.0,27.0,-100.00,East,80,1.0,4.0,95,-99.99,,,-99.99,,2013-01-08 06:22:00,
2013-01-08 01:33:00,28.0,27.0,-100.00,East,90,2.0,4.0,95,-99.99,,,-99.99,,2013-01-08 06:33:00,
2013-01-08 01:42:00,28.0,27.0,-100.00,NE,55,1.0,4.0,96,-99.99,,,-99.99,,2013-01-08 06:42:00,
2013-01-08 01:52:00,28.0,27.0,-100.00,East,85,1.0,6.0,96,-99.99,,,-99.99,,2013-01-08 06:52:00,
2013-01-08 02:02:00,28.0,27.0,-100.00,East,100,1.0,3.0,96,-99.99,,,-99.99,,2013-01-08 07:02:00,
2013-01-08 02:12:00,28.0,27.0,-100.00,NE,55,1.0,4.0,96,-99.99,,,-99.99,,2013-01-08 07:12:00,
2013-01-08 02:22:00,28.0,27.0,-100.00,East,100,1.0,4.0,96,-99.99,,,-99.99,,2013-01-08 07:22:00,
2013-01-08 02:32:00,28.0,27.0,-100.00,East,80,1.0,3.0,96,-99.99,,,-99.99,,2013-01-08 07:32:00,
2013-01-08 02:42:00,28.0,27.0,-100.00,East,95,2.0,4.0,96,-99.99,,,-99.99,,2013-01-08 07:42:00,
2013-01-08 02:52:00,27.0,27.0,-100.00,East,95,2.0,4.0,96,-99.99,,,-99.99,,2013-01-08 07:52:00,
2013-01-08 03:02:00,28.0,27.0,-100.00,East,90,1.0,4.0,96,-99.99,,,-99.99,,2013-01-08 08:02:00,
2013-01-08 03:12:00,28.0,27.0,-100.00,East,90,0.0,4.0,96,-99.99,,,-99.99,,2013-01-08 08:12:00,
2013-01-08 03:22:00,28.0,27.0,-100.00,ESE,120,2.0,10.0,96,-99.99,,,-99.99,,2013-01-08 08:22:00,
2013-01-08 03:32:00,28.0,27.0,-100.00,East,90,1.0,4.0,96,-99.99,,,-99.99,,2013-01-08 08:32:00,
2013-01-08 03:42:00,27.0,27.0,-100.00,ENE,75,2.0,4.0,96,-99.99,,,-99.99,,2013-01-08 08:42:00,
2013-01-08 03:52:00,28.0,27.0,-100.00,East,90,3.0,9.0,96,-99.99,,,-99.99,,2013-01-08 08:52:00,
2013-01-08 04:02:00,29.0,28.0,-100.00,SSE,160,4.0,9.0,96,-99.99,,,-99.99,,2013-01-08 09:02:00,
2013-01-08 04:12:00,29.0,28.0,-100.00,SE,130,3.0,7.0,97,-99.99,,,-99.99,,2013-01-08 09:12:00,
2013-01-08 04:22:00,29.0,28.0,-100.00,ENE,75,1.0,5.0,97,-99.99,,,-99.99,,2013-01-08 09:22:00,
2013-01-08 04:32:00,29.0,28.0,-100.00,South,180,3.0,7.0,97,-99.99,,,-99.99,,2013-01-08 09:32:00,
2013-01-08 04:42:00,29.0,28.0,-100.00,ESE,110,2.0,4.0,97,-99.99,,,-99.99,,2013-01-08 09:42:00,
2013-01-08 04:52:00,28.0,28.0,-100.00,East,100,3.0,6.0,97,-99.99,,,-99.99,,2013-01-08 09:52:00,
2013-01-08 05:02:00,28.0,27.0,-100.00,ESE,105,4.0,5.0,97,-99.99,,,-99.99,,2013-01-08 10:02:00,
2013-01-08 05:12:00,28.0,27.0,-100.00,ESE,105,3.0,6.0,97,-99.99,,,-99.99,,2013-01-08 10:12:00,
2013-01-08 05:22:00,28.0,27.0,-100.00,East,95,3.0,6.0,97,-99.99,,,-99.99,,2013-01-08 10:22:00,
2013-01-08 05:33:00,28.0,27.0,-100.00,ENE,75,1.0,6.0,97,-99.99,,,-99.99,,2013-01-08 10:33:00,
2013-01-08 05:42:00,27.0,27.0,-100.00,ENE,70,1.0,5.0,97,-99.99,,,-99.99,,2013-01-08 10:42:00,
2013-01-08 05:52:00,27.0,26.0,-100.00,East,80,3.0,4.0,97,-99.99,,,-99.99,,2013-01-08 10:52:00,
2013-01-08 06:02:00,27.0,26.0,-100.00,East,95,2.0,4.0,97,-99.99,,,-99.99,,2013-01-08 11:02:00,
2013-01-08 06:12:00,26.0,26.0,-100.00,ESE,105,1.0,3.0,97,-99.99,,,-99.99,,2013-01-08 11:12:00,
2013-01-08 06:22:00,26.0,26.0,-100.00,East,100,3.0,4.0,97,-99.99,,,-99.99,,2013-01-08 11:22:00,
2013-01-08 06:33:00,26.0,26.0,-100.00,East,90,2.0,5.0,97,-99.99,,,-99.99,,2013-01-08 11:33:00,
2013-01-08 06:42:00,27.0,26.0,-100.00,ESE,110,2.0,7.0,97,-99.99,,,-99.99,,2013-01-08 11:42:00,
2013-01-08 06:53:00,26.0,26.0,-100.00,ENE,70,1.0,4.0,97,-99.99,,,-99.99,,2013-01-08 11:53:00,
2013-01-08 07:03:00,26.0,26.0,-100.00,ESE,105,2.0,4.0,97,-99.99,,,-99.99,,2013-01-08 12:03:00,
2013-01-08 07:12:00,26.0,26.0,-100.00,ESE,115,3.0,4.0,97,-99.99,,,-99.99,,2013-01-08 12:12:00,
2013-01-08 07:22:00,26.0,26.0,-100.00,East,100,3.0,4.0,98,-99.99,,,-99.99,,2013-01-08 12:22:00,
2013-01-08 07:33:00,26.0,26.0,-100.00,ESE,115,3.0,6.0,98,-99.99,,,-99.99,,2013-01-08 12:33:00,
2013-01-08 07:42:00,26.0,26.0,-100.00,East,95,2.0,6.0,98,-99.99,,,-99.99,,2013-01-08 12:42:00,
2013-01-08 07:53:00,26.0,25.0,-100.00,SE,130,2.0,6.0,98,-99.99,,,-99.99,,2013-01-08 12:53:00,
2013-01-08 08:03:00,26.0,25.0,-100.00,ESE,105,2.0,4.0,98,-99.99,,,-99.99,,2013-01-08 13:03:00,
2013-01-08 08:12:00,25.0,25.0,-100.00,ESE,110,2.0,4.0,98,-99.99,,,-99.99,,2013-01-08 13:12:00,
2013-01-08 08:22:00,25.0,25.0,-100.00,ESE,110,2.0,5.0,98,-99.99,,,-99.99,,2013-01-08 13:22:00,
2013-01-08 08:33:00,26.0,25.0,-100.00,East,80,1.0,6.0,98,-99.99,,,-99.99,,2013-01-08 13:33:00,
2013-01-08 08:43:00,26.0,25.0,-100.00,ESE,110,2.0,6.0,98,-99.99,,,-99.99,,2013-01-08 13:43:00,
2013-01-08 08:52:00,26.0,25.0,-100.00,ENE,70,1.0,3.0,98,-99.99,,,-99.99,,2013-01-08 13:52:00,
2013-01-08 09:02:00,26.0,25.0,-100.00,NE,50,1.0,4.0,98,-99.99,,,-99.99,,2013-01-08 14:02:00,
2013-01-08 09:12:00,26.0,25.0,-100.00,East,95,3.0,7.0,98,-99.99,,,-99.99,,2013-01-08 14:12:00,
2013-01-08 09:23:00,26.0,26.0,-100.00,East,80,2.0,5.0,98,-99.99,,,-99.99,,2013-01-08 14:23:00,
2013-01-08 09:33:00,26.0,26.0,-100.00,ENE,75,3.0,6.0,98,-99.99,,,-99.99,,2013-01-08 14:33:00,
2013-01-08 09:43:00,27.0,26.0,-100.00,South,190,2.0,5.0,98,-99.99,,,-99.99,,2013-01-08 14:43:00,
2013-01-08 09:53:00,27.0,27.0,-100.00,East,90,2.0,5.0,98,-99.99,,,-99.99,,2013-01-08 14:53:00,
2013-01-08 10:03:00,28.0,28.0,-100.00,East,85,2.0,5.0,98,-99.99,,,-99.99,,2013-01-08 15:03:00,
2013-01-08 10:12:00,29.0,28.0,-100.00,East,85,2.0,5.0,98,-99.99,,,-99.99,,2013-01-08 15:12:00,
2013-01-08 10:22:00,29.0,29.0,-100.00,ESE,105,2.0,4.0,98,-99.99,,,-99.99,,2013-01-08 15:22:00,
2013-01-08 10:33:00,31.0,31.0,-100.00,East,90,2.0,4.0,98,-99.99,,,-99.99,,2013-01-08 15:33:00,
2013-01-08 10:43:00,32.0,31.0,-100.00,ENE,65,1.0,3.0,98,-99.99,,,-99.99,,2013-01-08 15:43:00,
2013-01-08 10:53:00,33.0,32.0,-100.00,ENE,65,2.0,4.0,98,-99.99,,,-99.99,,2013-01-08 15:53:00,
2013-01-08 11:03:00,34.0,34.0,-100.00,East,90,1.0,3.0,98,-99.99,,,-99.99,,2013-01-08 16:03:00,
2013-01-08 11:12:00,36.0,35.0,-100.00,ENE,75,2.0,4.0,98,-99.99,,,-99.99,,2013-01-08 16:12:00,
2013-01-08 11:23:00,37.0,37.0,-100.00,East,85,2.0,4.0,97,-99.99,,,-99.99,,2013-01-08 16:23:00,
2013-01-08 11:34:00,39.0,38.0,-100.00,SSE,165,2.0,4.0,96,-99.99,,,-99.99,,2013-01-08 16:34:00,
2013-01-08 11:42:00,40.0,38.0,-100.00,SSW,200,1.0,3.0,94,-99.99,,,-99.99,,2013-01-08 16:42:00,
2013-01-08 11:52:00,40.0,38.0,-100.00,SSE,165,1.0,6.0,89,-99.99,,,-99.99,,2013-01-08 16:52:00,
2013-01-08 12:03:00,41.0,37.0,-100.00,SSW,195,4.0,6.0,85,-99.99,,,-99.99,,2013-01-08 17:03:00,
2013-01-08 12:13:00,42.0,36.0,-100.00,SSW,210,4.0,9.0,79,-99.99,,,-99.99,,2013-01-08 17:13:00,
2013-01-08 12:23:00,42.0,35.0,-100.00,SSW,200,6.0,9.0,75,-99.99,,,-99.99,,2013-01-08 17:23:00,
2013-01-08 12:34:00,42.0,34.0,-100.00,South,190,7.0,9.0,70,-99.99,,,-99.99,,2013-01-08 17:34:00,
2013-01-08 12:43:00,42.0,32.0,-100.00,South,185,7.0,9.0,66,-99.99,,,-99.99,,2013-01-08 17:43:00,
2013-01-08 12:53:00,42.0,30.0,-100.00,SW,220,8.0,12.0,63,-99.99,,,-99.99,,2013-01-08 17:53:00,
2013-01-08 13:04:00,42.0,30.0,-100.00,SSW,210,9.0,12.0,62,-99.99,,,-99.99,,2013-01-08 18:04:00,
2013-01-08 13:13:00,43.0,31.0,-100.00,SSW,210,9.0,12.0,61,-99.99,,,-99.99,,2013-01-08 18:13:00,
2013-01-08 13:23:00,43.0,31.0,-100.00,South,185,7.0,10.0,60,-99.99,,,-99.99,,2013-01-08 18:23:00,
2013-01-08 13:33:00,43.0,29.0,-100.00,South,185,7.0,14.0,57,-99.99,,,-99.99,,2013-01-08 18:33:00,
2013-01-08 13:43:00,44.0,30.0,-100.00,South,180,4.0,11.0,57,-99.99,,,-99.99,,2013-01-08 18:43:00,
2013-01-08 13:53:00,45.0,31.0,-100.00,South,185,4.0,10.0,56,-99.99,,,-99.99,,2013-01-08 18:53:00,
2013-01-08 14:03:00,45.0,30.0,-100.00,SSW,195,4.0,8.0,55,-99.99,,,-99.99,,2013-01-08 19:03:00,
2013-01-08 14:12:00,45.0,30.0,-100.00,South,180,4.0,8.0,55,-99.99,,,-99.99,,2013-01-08 19:12:00,
2013-01-08 14:23:00,45.0,29.0,-100.00,East,85,2.0,9.0,54,-99.99,,,-99.99,,2013-01-08 19:23:00,
2013-01-08 14:33:00,45.0,29.0,-100.00,South,180,4.0,7.0,53,-99.99,,,-99.99,,2013-01-08 19:33:00,
2013-01-08 14:42:00,45.0,28.0,-100.00,SSE,160,4.0,7.0,52,-99.99,,,-99.99,,2013-01-08 19:42:00,
2013-01-08 14:53:00,45.0,29.0,-100.00,South,175,4.0,8.0,52,-99.99,,,-99.99,,2013-01-08 19:53:00,
2013-01-08 15:03:00,46.0,29.0,-100.00,South,190,4.0,9.0,51,-99.99,,,-99.99,,2013-01-08 20:03:00,
2013-01-08 15:12:00,46.0,29.0,-100.00,South,175,4.0,10.0,51,-99.99,,,-99.99,,2013-01-08 20:12:00,
2013-01-08 15:23:00,46.0,29.0,-100.00,SSW,195,6.0,10.0,51,-99.99,,,-99.99,,2013-01-08 20:23:00,
2013-01-08 15:33:00,45.0,28.0,-100.00,South,180,6.0,9.0,52,-99.99,,,-99.99,,2013-01-08 20:33:00,
2013-01-08 15:43:00,44.0,28.0,-100.00,South,185,3.0,7.0,52,-99.99,,,-99.99,,2013-01-08 20:43:00,
2013-01-08 15:53:00,45.0,28.0,-100.00,South,185,4.0,7.0,51,-99.99,,,-99.99,,2013-01-08 20:53:00,
2013-01-08 16:03:00,45.0,28.0,-100.00,South,185,3.0,7.0,51,-99.99,,,-99.99,,2013-01-08 21:03:00,
2013-01-08 16:13:00,45.0,28.0,-100.00,South,175,3.0,7.0,51,-99.99,,,-99.99,,2013-01-08 21:13:00,
2013-01-08 16:23:00,45.0,28.0,-100.00,South,175,2.0,7.0,51,-99.99,,,-99.99,,2013-01-08 21:23:00,
2013-01-08 16:33:00,44.0,28.0,-100.00,SSE,160,2.0,5.0,51,-99.99,,,-99.99,,2013-01-08 21:33:00,
2013-01-08 16:43:00,44.0,28.0,-100.00,South,180,2.0,7.0,52,-99.99,,,-99.99,,2013-01-08 21:43:00,
2013-01-08 16:53:00,44.0,28.0,-100.00,South,170,2.0,6.0,53,-99.99,,,-99.99,,2013-01-08 21:53:00,
2013-01-08 17:03:00,43.0,28.0,-100.00,ENE,70,1.0,7.0,55,-99.99,,,-99.99,,2013-01-08 22:03:00,
2013-01-08 17:12:00,43.0,28.0,-100.00,South,175,4.0,9.0,56,-99.99,,,-99.99,,2013-01-08 22:12:00,
2013-01-08 17:23:00,42.0,29.0,-100.00,NE,55,2.0,6.0,58,-99.99,,,-99.99,,2013-01-08 22:23:00,
2013-01-08 17:33:00,42.0,29.0,-100.00,South,180,2.0,4.0,60,-99.99,,,-99.99,,2013-01-08 22:33:00,
2013-01-08 17:43:00,41.0,29.0,-100.00,ENE,70,1.0,6.0,62,-99.99,,,-99.99,,2013-01-08 22:43:00,
2013-01-08 17:52:00,41.0,29.0,-100.00,ENE,65,1.0,6.0,63,-99.99,,,-99.99,,2013-01-08 22:52:00,
2013-01-08 18:03:00,40.0,30.0,-100.00,ESE,120,1.0,3.0,66,-99.99,,,-99.99,,2013-01-08 23:03:00,
2013-01-08 18:13:00,40.0,30.0,-100.00,SE,140,1.0,3.0,68,-99.99,,,-99.99,,2013-01-08 23:13:00,
2013-01-08 18:22:00,39.0,31.0,-100.00,SE,140,1.0,4.0,70,-99.99,,,-99.99,,2013-01-08 23:22:00,
2013-01-08 18:33:00,39.0,31.0,-100.00,ENE,70,1.0,3.0,73,-99.99,,,-99.99,,2013-01-08 23:33:00,
2013-01-08 18:43:00,38.0,31.0,-100.00,SE,130,1.0,4.0,76,-99.99,,,-99.99,,2013-01-08 23:43:00,
2013-01-08 18:52:00,37.0,31.0,-100.00,ESE,115,1.0,3.0,78,-99.99,,,-99.99,,2013-01-08 23:52:00,
2013-01-08 19:03:00,37.0,32.0,-100.00,ESE,105,1.0,4.0,80,-99.99,,,-99.99,,2013-01-09 00:03:00,
2013-01-08 19:12:00,37.0,32.0,-100.00,ENE,70,1.0,4.0,81,-99.99,,,-99.99,,2013-01-09 00:12:00,
2013-01-08 19:22:00,37.0,32.0,-100.00,ENE,70,1.0,4.0,81,-99.99,,,-99.99,,2013-01-09 00:22:00,
2013-01-08 19:33:00,36.0,32.0,-100.00,SE,125,1.0,3.0,83,-99.99,,,-99.99,,2013-01-09 00:33:00,
2013-01-08 19:42:00,36.0,32.0,-100.00,NNE,15,1.0,3.0,84,-99.99,,,-99.99,,2013-01-09 00:42:00,
2013-01-08 19:52:00,36.0,32.0,-100.00,South,185,1.0,2.0,85,-99.99,,,-99.99,,2013-01-09 00:52:00,
2013-01-08 20:02:00,35.0,32.0,-100.00,SE,125,1.0,2.0,86,-99.99,,,-99.99,,2013-01-09 01:02:00,
2013-01-08 20:12:00,35.0,31.0,-100.00,ENE,70,1.0,3.0,86,-99.99,,,-99.99,,2013-01-09 01:12:00,
2013-01-08 20:22:00,35.0,32.0,-100.00,South,185,1.0,4.0,87,-99.99,,,-99.99,,2013-01-09 01:22:00,
2013-01-08 20:33:00,35.0,32.0,-100.00,South,185,1.0,4.0,87,-99.99,,,-99.99,,2013-01-09 01:33:00,
2013-01-08 20:42:00,35.0,31.0,-100.00,ESE,120,0.0,4.0,87,-99.99,,,-99.99,,2013-01-09 01:42:00,
2013-01-08 20:52:00,35.0,31.0,-100.00,East,80,1.0,4.0,87,-99.99,,,-99.99,,2013-01-09 01:52:00,
2013-01-08 21:02:00,34.0,31.0,-100.00,East,100,1.0,3.0,88,-99.99,,,-99.99,,2013-01-09 02:02:00,
2013-01-08 21:12:00,34.0,31.0,-100.00,ESE,105,1.0,4.0,89,-99.99,,,-99.99,,2013-01-09 02:12:00,
2013-01-08 21:22:00,34.0,31.0,-100.00,ESE,110,1.0,4.0,89,-99.99,,,-99.99,,2013-01-09 02:22:00,
2013-01-08 21:33:00,34.0,31.0,-100.00,North,0,1.0,4.0,89,-99.99,,,-99.99,,2013-01-09 02:33:00,
2013-01-08 21:43:00,34.0,31.0,-100.00,ENE,60,1.0,3.0,90,-99.99,,,-99.99,,2013-01-09 02:43:00,
2013-01-08 21:52:00,33.0,31.0,-100.00,East,80,1.0,4.0,90,-99.99,,,-99.99,,2013-01-09 02:52:00,
2013-01-08 22:03:00,33.0,31.0,-100.00,East,80,1.0,4.0,90,-99.99,,,-99.99,,2013-01-09 03:03:00,
2013-01-08 22:12:00,33.0,31.0,-100.00,NNE,25,1.0,4.0,91,-99.99,,,-99.99,,2013-01-09 03:12:00,
2013-01-08 22:22:00,33.0,31.0,-100.00,SE,125,1.0,6.0,91,-99.99,,,-99.99,,2013-01-09 03:22:00,
2013-01-08 22:33:00,33.0,31.0,-100.00,ESE,110,1.0,3.0,91,-99.99,,,-99.99,,2013-01-09 03:33:00,
2013-01-08 22:43:00,33.0,31.0,-100.00,NE,55,1.0,3.0,92,-99.99,,,-99.99,,2013-01-09 03:43:00,
2013-01-08 22:52:00,33.0,31.0,-100.00,East,95,1.0,4.0,92,-99.99,,,-99.99,,2013-01-09 03:52:00,
2013-01-08 23:02:00,33.0,31.0,-100.00,ESE,110,1.0,4.0,92,-99.99,,,-99.99,,2013-01-09 04:02:00,
2013-01-08 23:12:00,33.0,31.0,-100.00,East,85,1.0,3.0,93,-99.99,,,-99.99,,2013-01-09 04:12:00,
2013-01-08 23:22:00,32.0,31.0,-100.00,ESE,110,1.0,4.0,93,-99.99,,,-99.99,,2013-01-09 04:22:00,
2013-01-08 23:33:00,32.0,31.0,-100.00,ENE,70,0.0,3.0,93,-99.99,,,-99.99,,2013-01-09 04:33:00,
2013-01-08 23:42:00,32.0,31.0,-100.00,ENE,60,1.0,2.0,93,-99.99,,,-99.99,,2013-01-09 04:42:00,
2013-01-08 23:52:00,32.0,30.0,-100.00,ESE,105,1.0,2.0,93,-99.99,,,-99.99,,2013-01-09 04:52:00,